TimeEST,TemperatureF,Dew PointF,Humidity,Sea Level PressureIn,VisibilityMPH,Wind Direction,Wind SpeedMPH,Gust SpeedMPH,PrecipitationIn,Events,Conditions,WindDirDegrees,DateUTC
12:15 AM,41.0,33.8,76,29.98,10.0,NW,8.1,-,N/A,,Clear,310,2013-02-16 05:15:00
12:35 AM,39.2,33.8,81,29.98,10.0,WNW,10.4,17.3,N/A,,Mostly Cloudy,300,2013-02-16 05:35:00
12:55 AM,39.2,33.8,81,29.98,10.0,NW,9.2,17.3,N/A,,Overcast,310,2013-02-16 05:55:00
1:15 AM,39.2,33.8,81,29.98,10.0,NW,8.1,-,N/A,,Overcast,310,2013-02-16 06:15:00
1:35 AM,39.2,33.8,81,29.97,10.0,WNW,5.8,-,N/A,,Overcast,300,2013-02-16 06:35:00
1:55 AM,39.2,33.8,81,29.97,10.0,NW,5.8,-,N/A,,Overcast,310,2013-02-16 06:55:00
2:15 AM,39.2,33.8,81,29.96,10.0,NW,4.6,-,N/A,,Mostly Cloudy,320,2013-02-16 07:15:00
2:35 AM,39.2,33.8,81,29.95,10.0,NW,4.6,-,N/A,,Mostly Cloudy,310,2013-02-16 07:35:00
2:55 AM,39.2,33.8,81,29.95,10.0,NW,4.6,-,N/A,,Overcast,310,2013-02-16 07:55:00
3:15 AM,39.2,33.8,81,29.94,10.0,NNW,6.9,-,N/A,,Overcast,330,2013-02-16 08:15:00
3:35 AM,39.2,33.8,81,29.95,10.0,WNW,5.8,-,N/A,,Overcast,300,2013-02-16 08:35:00
3:55 AM,39.2,33.8,81,29.94,10.0,NW,5.8,-,N/A,,Overcast,320,2013-02-16 08:55:00
4:15 AM,39.2,33.8,81,29.94,10.0,NW,5.8,-,N/A,,Overcast,320,2013-02-16 09:15:00
4:35 AM,39.2,33.8,81,29.94,10.0,NNW,5.8,-,N/A,,Overcast,330,2013-02-16 09:35:00
4:55 AM,37.4,33.8,87,29.94,10.0,NNW,4.6,-,N/A,,Overcast,340,2013-02-16 09:55:00
5:15 AM,37.4,33.8,87,29.95,10.0,NW,6.9,-,N/A,,Overcast,310,2013-02-16 10:15:00
5:35 AM,37.4,33.8,87,29.95,10.0,NW,5.8,-,N/A,,Overcast,320,2013-02-16 10:35:00
5:55 AM,37.4,33.8,87,29.94,10.0,NNW,4.6,-,N/A,,Overcast,330,2013-02-16 10:55:00
6:15 AM,37.4,33.8,87,29.93,10.0,NNW,6.9,-,N/A,,Overcast,340,2013-02-16 11:15:00
6:35 AM,37.4,33.8,87,29.93,10.0,NNW,5.8,-,N/A,,Overcast,330,2013-02-16 11:35:00
6:55 AM,37.4,33.8,87,29.94,10.0,NNW,8.1,-,N/A,,Overcast,340,2013-02-16 11:55:00
7:15 AM,37.4,33.8,87,29.93,10.0,North,8.1,-,N/A,,Overcast,360,2013-02-16 12:15:00
7:35 AM,37.4,33.8,87,29.94,10.0,North,6.9,-,N/A,,Overcast,360,2013-02-16 12:35:00
7:55 AM,37.4,32.0,81,29.94,10.0,North,6.9,-,N/A,,Overcast,360,2013-02-16 12:55:00
8:15 AM,37.4,32.0,81,29.93,10.0,North,6.9,-,N/A,,Overcast,10,2013-02-16 13:15:00
8:35 AM,37.4,32.0,81,29.94,10.0,North,6.9,-,N/A,,Overcast,360,2013-02-16 13:35:00
8:55 AM,37.4,32.0,81,29.94,10.0,North,6.9,-,N/A,,Overcast,360,2013-02-16 13:55:00
9:15 AM,39.2,32.0,75,29.94,10.0,NNW,8.1,-,N/A,,Overcast,340,2013-02-16 14:15:00
9:35 AM,37.4,32.0,81,29.94,10.0,NNW,5.8,-,N/A,,Overcast,340,2013-02-16 14:35:00
9:55 AM,37.4,32.0,81,29.93,10.0,North,10.4,-,N/A,,Overcast,350,2013-02-16 14:55:00
10:15 AM,39.2,32.0,75,29.94,10.0,NNW,8.1,-,N/A,,Overcast,340,2013-02-16 15:15:00
10:35 AM,37.4,32.0,81,29.93,10.0,NNW,8.1,-,N/A,,Overcast,340,2013-02-16 15:35:00
10:55 AM,37.4,32.0,81,29.92,9.0,North,8.1,-,0.01,,Overcast,360,2013-02-16 15:55:00
11:15 AM,37.4,33.8,87,29.92,10.0,North,10.4,-,N/A,,Overcast,10,2013-02-16 16:15:00
11:35 AM,37.4,33.8,87,29.91,10.0,North,6.9,-,N/A,,Overcast,360,2013-02-16 16:35:00
11:55 AM,37.4,33.8,87,29.90,10.0,North,8.1,-,N/A,,Overcast,360,2013-02-16 16:55:00
12:15 PM,37.4,33.8,87,29.90,10.0,North,6.9,-,0.01,,Overcast,10,2013-02-16 17:15:00
12:35 PM,37.4,33.8,87,29.89,8.0,NNW,8.1,-,0.01,,Overcast,340,2013-02-16 17:35:00
12:55 PM,35.6,32.0,87,29.89,6.0,North,6.9,-,0.02,,Overcast,350,2013-02-16 17:55:00
1:15 PM,35.6,32.0,87,29.88,5.0,North,6.9,-,0.02,,Overcast,350,2013-02-16 18:15:00
1:35 PM,35.6,32.0,87,29.88,7.0,North,5.8,-,0.02,,Overcast,350,2013-02-16 18:35:00
1:55 PM,35.6,30.2,81,29.87,10.0,North,8.1,-,0.03,,Overcast,360,2013-02-16 18:55:00
2:15 PM,35.6,32.0,87,29.87,9.0,North,6.9,-,0.01,,Overcast,360,2013-02-16 19:15:00
2:35 PM,35.6,30.2,81,29.86,6.0,North,8.1,-,0.02,,Overcast,360,2013-02-16 19:35:00
2:55 PM,35.6,32.0,87,29.85,6.0,North,8.1,-,0.04,,Overcast,360,2013-02-16 19:55:00
3:15 PM,35.6,32.0,87,29.85,10.0,North,6.9,-,N/A,,Overcast,10,2013-02-16 20:15:00
3:35 PM,35.6,32.0,87,29.84,10.0,North,8.1,-,N/A,,Overcast,360,2013-02-16 20:35:00
3:55 PM,35.6,32.0,87,29.84,-9999.0,North,6.9,-,N/A,,Unknown,360,2013-02-16 20:55:00
4:15 PM,35.6,30.2,81,29.83,-9999.0,North,6.9,-,N/A,,Overcast,10,2013-02-16 21:15:00
4:35 PM,35.6,30.2,81,29.82,-9999.0,North,6.9,-,N/A,,Overcast,350,2013-02-16 21:35:00
4:55 PM,35.6,30.2,81,29.82,-9999.0,NNW,9.2,16.1,0.01,,Overcast,330,2013-02-16 21:55:00
5:15 PM,35.6,30.2,81,29.81,9.0,North,8.1,-,N/A,,Overcast,350,2013-02-16 22:15:00
5:35 PM,35.6,28.4,75,29.81,10.0,NNW,8.1,-,N/A,,Overcast,340,2013-02-16 22:35:00
5:55 PM,35.6,28.4,75,29.81,10.0,North,8.1,-,N/A,,Overcast,350,2013-02-16 22:55:00
6:15 PM,35.6,24.8,65,29.81,10.0,North,9.2,17.3,N/A,,Overcast,350,2013-02-16 23:15:00
6:35 PM,35.6,26.6,70,29.81,10.0,North,8.1,20.7,N/A,,Overcast,350,2013-02-16 23:35:00
6:55 PM,35.6,26.6,70,29.81,7.0,North,11.5,16.1,N/A,,Overcast,350,2013-02-16 23:55:00
7:15 PM,33.8,26.6,75,29.82,7.0,North,12.7,19.6,N/A,,Overcast,360,2013-02-17 00:15:00
7:35 PM,33.8,26.6,75,29.81,5.0,North,11.5,16.1,N/A,,Overcast,360,2013-02-17 00:35:00
7:55 PM,32.0,26.6,80,29.80,1.8,North,11.5,-,N/A,,Overcast,360,2013-02-17 00:55:00
8:15 PM,32.0,28.4,87,29.81,2.5,North,10.4,-,N/A,,Overcast,350,2013-02-17 01:15:00
8:35 PM,32.0,28.4,87,29.81,2.0,North,12.7,18.4,N/A,,Overcast,350,2013-02-17 01:35:00
8:55 PM,32.0,28.4,87,29.80,2.5,North,6.9,-,N/A,,Overcast,350,2013-02-17 01:55:00
9:15 PM,32.0,28.4,87,29.79,1.8,North,12.7,18.4,N/A,,Overcast,360,2013-02-17 02:15:00
9:35 PM,30.2,26.6,86,29.79,2.5,NNW,10.4,17.3,N/A,,Overcast,330,2013-02-17 02:35:00
9:55 PM,30.2,26.6,86,29.79,1.2,North,15.0,21.9,N/A,,Overcast,360,2013-02-17 02:55:00
10:15 PM,30.2,26.6,86,29.78,2.5,North,10.4,18.4,N/A,,Overcast,360,2013-02-17 03:15:00
10:35 PM,30.2,24.8,80,29.78,5.0,North,10.4,-,N/A,,Overcast,360,2013-02-17 03:35:00
10:55 PM,30.2,24.8,80,29.77,5.0,North,8.1,-,N/A,,Overcast,360,2013-02-17 03:55:00
11:15 PM,30.2,24.8,80,29.75,10.0,North,9.2,-,N/A,,Overcast,10,2013-02-17 04:15:00
11:35 PM,30.2,24.8,80,29.74,10.0,North,8.1,-,N/A,,Overcast,10,2013-02-17 04:35:00
11:55 PM,30.2,23.0,75,29.74,10.0,North,9.2,17.3,N/A,,Overcast,350,2013-02-17 04:55:00